Owensboro, KY

1:02 AM CDT on September 23, 2017 (GMT -0500)
Owensboro-Daviess County

Weather History for KOWB - December, 2011

Change the Weather History Date:

Friday, December 23, 2011

  Actual Average Record
Temperature  
Mean Temperature 38 °F -  
Max Temperature 41 °F 44 °F 67 °F (1933)
Min Temperature 32 °F 27 °F -13 °F (1989)
Degree Days  
Heating Degree Days 26    
Moisture  
Dew Point 35 °F    
Average Humidity 87    
Maximum Humidity 100    
Minimum Humidity 73    
Precipitation  
Precipitation 0.00 in - - ()
Sea Level Pressure  
Sea Level Pressure 30.32 in    
Wind  
Wind Speed 9 mph (NW)    
Max Wind Speed 12 mph    
Max Gust Speed -    
Visibility 8 miles    
Events Rain    
Averages and records for this station are not official NWS values.
T = Trace of Precipitation, MM = Missing Value Source: NWS Daily Summary

Daily Weather History Graph

Daily Weather History Graph

Search for Another Location

Airport or City:

Trip Planner

Search our weather history database for the weather conditions in past years. The results will help you decide how hot, cold, wet, or windy it might be!

Date:

Astronomy

Dec. 23, 2011 Rise Set
Actual Time 7:01 AM CST 4:34 PM CST
Civil Twilight 6:31 AM CST 5:03 PM CST
Nautical Twilight 5:58 AM CST 5:36 PM CST
Astronomical Twilight 5:26 AM CST 6:08 PM CST
Moon 5:50 AM CST 3:42 PM CST
Length of Visible Light 10h 31m
Length of Day
9h 33m
Waning Crescent, 1% of the Moon is Illuminated
Dec 23
Waning Crescent
Dec 24
New
Jan 1
First Quarter
Jan 9
Full
Jan 16
Last Quarter

Hourly Weather History & Observations

Time (CST) Temp. Windchill Dew Point Humidity Pressure Visibility Wind Dir Wind Speed Gust Speed Precip Events Conditions
12:42 AM 41.0 °F 34.7 °F 37.4 °F 87% 30.19 in 10.0 mi NW 10.4 mph - N/A   Overcast
1:16 AM 41.0 °F 34.3 °F 37.4 °F 87% 30.20 in 8.0 mi NW 11.5 mph - N/A   Overcast
1:56 AM 39.2 °F 32.0 °F 37.4 °F 93% 30.21 in 7.0 mi NW 11.5 mph - N/A   Overcast
2:32 AM 39.2 °F 32.5 °F 35.6 °F 87% 30.23 in 10.0 mi NNW 10.4 mph - N/A   Overcast
2:56 AM 39.9 °F 33.9 °F 34.9 °F 82% 30.25 in 10.0 mi NNW 9.2 mph - N/A   Overcast
3:26 AM 39.2 °F 32.5 °F 35.6 °F 87% 30.24 in 7.0 mi NW 10.4 mph - N/A   Overcast
3:56 AM 39.2 °F 32.0 °F 35.6 °F 87% 30.25 in 8.0 mi NW 11.5 mph - N/A   Overcast
4:30 AM 39.2 °F 35.0 °F 33.8 °F 81% 30.26 in 10.0 mi NNW 5.8 mph - N/A   Overcast
4:56 AM 38.8 °F 35.4 °F 34.9 °F 86% 30.28 in 10.0 mi NNW 4.6 mph - N/A   Overcast
5:31 AM 39.2 °F 33.6 °F 35.6 °F 87% 30.29 in 8.0 mi NW 8.1 mph - N/A   Overcast
5:43 AM 39.2 °F 35.0 °F 35.6 °F 87% 30.29 in 6.0 mi WNW 5.8 mph - N/A   Overcast
5:56 AM 38.8 °F 33.2 °F 36.0 °F 89% 30.30 in 5.0 mi NW 8.1 mph - N/A   Overcast
6:56 AM 37.4 °F 32.1 °F 37.4 °F 100% 30.32 in 3.0 mi NW 6.9 mph - N/A   Overcast
7:56 AM 37.9 °F 32.1 °F 37.9 °F 100% 30.34 in 1.0 mi NW 8.1 mph - 0.00 in Rain Light Rain
8:56 AM 38.8 °F 32.6 °F 36.9 °F 93% 30.36 in 2.0 mi NW 9.2 mph - 0.00 in   Overcast
9:56 AM 38.8 °F 32.6 °F 36.9 °F 93% 30.38 in 4.0 mi NW 9.2 mph - N/A   Overcast
10:56 AM 38.8 °F 33.2 °F 36.0 °F 89% 30.36 in 5.0 mi NNW 8.1 mph - N/A   Overcast
11:56 AM 38.8 °F 32.1 °F 36.0 °F 89% 30.35 in 5.0 mi NW 10.4 mph - N/A   Overcast
12:56 PM 37.9 °F 32.1 °F 36.0 °F 93% 30.34 in 5.0 mi NW 8.1 mph - N/A   Overcast
1:56 PM 38.8 °F 34.6 °F 36.0 °F 89% 30.33 in 7.0 mi WNW 5.8 mph - N/A   Overcast
2:56 PM 38.8 °F 33.8 °F 36.0 °F 89% 30.34 in 10.0 mi WNW 6.9 mph - N/A   Overcast
3:56 PM 38.8 °F 33.8 °F 34.9 °F 86% 30.34 in 10.0 mi West 6.9 mph - N/A   Overcast
5:27 PM 37.4 °F 32.1 °F 33.8 °F 87% 30.35 in 10.0 mi WNW 6.9 mph - N/A   Overcast
5:56 PM 37.9 °F 32.7 °F 32.9 °F 82% 30.37 in 10.0 mi West 6.9 mph - N/A   Overcast
6:56 PM 37.9 °F 32.7 °F 32.9 °F 82% 30.38 in 10.0 mi West 6.9 mph - N/A   Overcast
7:56 PM 37.9 °F 31.5 °F 31.1 °F 76% 30.40 in 10.0 mi West 9.2 mph - N/A   Overcast
8:56 PM 36.9 °F 33.1 °F 32.0 °F 83% 30.40 in 10.0 mi West 4.6 mph - N/A   Overcast
9:56 PM 36.9 °F 30.1 °F 29.1 °F 74% 30.41 in 10.0 mi WNW 9.2 mph - N/A   Overcast
10:56 PM 36.0 °F 28.5 °F 28.0 °F 73% 30.41 in 10.0 mi West 10.4 mph - N/A   Overcast
11:56 PM 32.9 °F 29.8 °F 29.1 °F 86% 30.41 in 10.0 mi WSW 3.5 mph - N/A   Mostly Cloudy